Location: Newark
(10.9667°N, 4.8167°W)
Time: 11:31:03
(UTC+00:00)

Hubble Space Telescope - Pass Details

Date: 10 December 2019
Orbit: 536 x 540 km, 28.5° (Epoch: 20 January)

Event Time Altitude Azimuth Distance (km) Brightness Sun altitude
Exits shadow 05:49:53 - 248° (WSW) 2,298 3.6 -9.2°
Reaches altitude 10° 05:51:12 10° 250° (WSW) 1,783 3.0 -8.9°
Maximum altitude 05:55:18 67° 333° (NNW) 579 0.8 -8.0°
Drops below altitude 10° 05:59:25 10° 56° (NE) 1,782 3.9 -7.1°
Sets 06:01:41 0° 59° (ENE) 2,672 4.9 -6.5°
